Location: Lussas
(44.6119°N, 4.4726°E)
Time: 13:56:59
(UTC+00:00)

SMAP - Pass Details

Date: 26 November 2020
Orbit: 681 x 683 km, 98.1° (Epoch: 28 January)

Event Time Altitude Azimuth Distance (km) Brightness Sun altitude
Rises 06:06:44 0° 13° (NNE) 3,058 6.3 -8.3°
Reaches altitude 10° 06:08:59 10° 13° (NNE) 2,138 5.5 -7.9°
Maximum altitude 06:13:40 90° 295° (WNW) 690 3.1 -7.2°
Drops below altitude 10° 06:18:19 10° 195° (SSW) 2,120 5.7 -6.4°
Sets 06:20:33 0° 195° (SSW) 3,031 6.5 -6.0°
